Location: Pulvis Stellarum Observatory
(41.6962°N, 71.4263°W)
Time: 08:44:58
(UTC-05:00)

Daily predictions for brighter satellites

Satellite Brightness Start Highest point End
(mag) Time Altitude Azimuth Time Altitude Azimuth Time Altitude Azimuth
ATLAS 2AS CENTAUR R/B 3.0 17:02:44 10° NNW 17:10:45 78° NE 17:18:05 10° SE
CSL-04 Rocket 3.8 17:06:44 10° SSE 17:12:17 88° ENE 17:17:51 10° NNW
CZ-4 R/B 1.6 17:09:38 10° SSE 17:13:45 57° ENE 17:17:56 10° N
Cosmos 1300 3.7 17:12:10 10° NNE 17:15:27 26° ENE 17:18:43 10° SE
SL-14 R/B 4.2 17:12:36 10° SSE 17:16:02 28° E 17:19:27 10° NNE
Cosmos 968 Rocket 3.8 17:12:12 10° N 17:17:08 43° ENE 17:22:00 10° SE
Cosmos 1943 Rocket 2.3 17:12:03 10° NNW 17:17:33 54° ENE 17:22:59 10° SE
NOSS 2-1 (E) 3.5 17:14:26 10° SW 17:18:05 68° NW 17:22:15 10° NNE
Cosmos 2341 Rocket 4.0 17:14:20 10° N 17:20:36 71° E 17:26:53 10° SSE
Cosmos 1484 Rocket 3.3 17:17:33 10° S 17:21:20 62° W 17:25:04 10° NNW
CZ-2C R/B 3.9 17:21:21 10° NNE 17:26:03 59° ESE 17:30:37 10° S
ERS-2 3.6 17:24:31 10° ESE 17:27:03 18° ENE 17:29:37 10° NNE
Okean 3 Rocket 3.9 17:23:33 10° SSE 17:27:53 48° E 17:32:14 10° NNE
Cosmos 44 4.3 17:27:48 10° SSE 17:31:10 23° ESE 17:34:10 12° ENE
NOSS 3-4 (A) 4.3 17:26:39 10° NNW 17:33:06 38° NE 17:39:57 10° ESE
NOSS 3-4 (C) 4.3 17:26:46 10° NNW 17:33:11 38° NE 17:40:02 10° ESE
MTI 4.4 17:33:37 10° NNE 17:36:38 36° E 17:39:36 10° SSE
SKYMED 2 3.8 17:32:29 10° NNE 17:36:44 50° E 17:40:57 10° S
SMAP 3.9 17:33:46 10° S 17:38:19 55° W 17:42:54 10° NNW
Cosmos 1315 Rocket 3.4 17:35:41 10° SSE 17:39:15 34° E 17:42:50 10° NNE
NOSS 3-3 (A) 4.4 17:34:12 10° SW 17:40:14 66° NW 17:46:53 10° NNE
NOSS 3-3 (C) 4.3 17:34:17 10° SW 17:40:19 67° NW 17:47:00 10° NNE
FENGYUN 3A 3.8 17:35:16 10° SE 17:40:25 51° ENE 17:45:36 10° N
SL-24 R/B - RUBIN 2 4.3 17:37:00 10° NNW 17:41:06 31° NE 17:44:59 10° ESE
Cosmos 1346 Rocket 4.0 17:39:38 10° NNE 17:42:36 20° ENE 17:45:30 10° ESE
Meteor 2-16 Rocket 4.4 17:38:04 10° N 17:44:12 80° E 17:50:19 10° S
Meteor 1-28 Rocket 4.4 17:40:44 10° N 17:44:23 44° WNW 17:48:00 10° SW
OAO 3 Rocket 4.3 17:40:40 10° WSW 17:44:58 36° S 17:49:12 11° ESE
Cosmos 2181 Rocket 4.1 17:38:42 10° S 17:45:09 88° E 17:51:37 10° N
YAOGAN 1 2.5 17:40:55 10° SSE 17:45:16 89° ENE 17:49:37 10° NNW
COSMOS 2406 4.5 17:45:22 10° SSE 17:49:28 21° E 17:51:39 17° ENE
IRS-1A Rocket 4.4 17:46:20 10° SSE 17:51:51 81° WSW 17:57:30 10° NNW
Cosmos 44 Rocket 3.9 17:52:05 10° S 17:56:16 34° ESE 17:58:45 20° ENE
H-2A R/B 3.5 17:55:01 10° SE 17:58:22 30° ENE 18:01:45 10° N
Cosmos 1726 3.4 17:55:22 10° NNW 17:58:52 43° W 18:02:20 10° SSW
METEOR-M 4.5 17:53:34 10° S 17:58:53 70° WSW 18:04:15 10° NNW
Tiangong 1 0.4 17:59:12 10° W 18:01:40 68° N 18:02:11 47° ENE
SL-8 Rocket 4.1 17:59:37 10° N 18:05:49 81° W 18:12:02 10° S
Cosmos 1943 4.3 18:01:24 10° SW 18:06:44 43° WNW 18:12:06 10° NNE
Cosmos 2221 3.8 18:02:53 10° NNW 18:07:03 44° W 18:11:12 10° SSW
Cosmos 1328 3.7 18:04:25 10° S 18:08:25 77° E 18:12:27 10° N
Cosmos 2218 Rocket 3.9 18:02:35 10° N 18:08:48 89° E 18:14:56 10° S
Cosmos 1400 Rocket 4.0 18:05:50 10° SSW 18:09:42 44° WNW 18:13:39 10° N
Meteor 2-2 Rocket 4.2 18:04:11 10° N 18:09:56 70° E 18:15:34 10° SSE
MOS 1 4.4 18:06:52 10° SSE 18:12:31 81° WSW 18:18:12 10° NNW
Cosmos 1515 Rocket 4.1 18:14:35 10° N 18:24:08 - SSE 18:18:09 33° ENE
SPOT 3 Rocket 3.5 18:13:43 10° SSE 18:18:51 88° WSW 18:24:03 10° NNW
Cosmos 1408 Rocket 3.4 18:15:28 10° S 18:19:46 82° E 18:24:05 10° N
ALOS 2.8 18:18:29 10° S 18:23:05 60° W 18:27:43 10° NNW
EO 1 Del DPAF 3.4 18:20:22 10° N 18:24:12 73° WNW 18:28:00 10° SSW
COSMO-SKYMED 1 3.6 18:20:35 10° N 18:24:46 47° WNW 18:28:55 10° SW
Cosmos 2058 3.2 18:23:13 10° SSE 18:27:11 44° E 18:27:12 44° E
USA 81 4.2 18:25:45 10° SSE 18:30:47 47° E 18:34:20 19° NNE
Cosmos 2228 Rocket 3.2 18:26:51 10° N 18:31:20 52° E 18:35:48 10° SSE
Cosmos 1500 Rocket 4.2 18:27:49 10° SSE 18:31:09 37° ESE 18:31:09 37° ESE
Cosmos 1777 Rocket 3.9 18:28:00 10° NNW 18:33:16 85° ENE 18:38:32 10° SSE
Cosmos 2151 3.1 18:30:58 10° S 18:34:53 51° ESE 18:34:53 51° ESE
Cosmos 1703 3.1 18:32:55 10° S 18:36:52 75° E 18:37:44 52° NNE
Cosmos 1241 Rocket 4.5 18:34:14 10° NNW 18:40:22 56° NE 18:42:41 36° ESE
Cosmos 1626 2.9 18:40:24 10° SSW 18:44:00 51° W 18:46:24 20° N
GEOS 3 Rocket 3.6 18:42:15 35° SE 18:44:33 71° NE 18:49:55 10° NNW
Cosmos 1743 Rocket 3.4 18:41:29 10° S 18:45:50 76° E 18:46:27 63° NE
Cosmos 1328 Rocket 3.8 18:48:16 10° NNW 18:52:38 68° W 18:56:56 10° S
Cosmos 1821 Rocket 3.9 18:47:47 10° N 18:53:54 61° E 19:00:02 10° SSE
Cosmos 1535 Rocket 4.5 18:48:15 10° N 18:54:15 52° ENE 18:54:29 52° E
Cosmos 1656 Rocket 4.3 18:50:50 10° NNW 18:56:11 56° WSW 19:01:34 10° S
Cosmos 2098 Rocket 3.9 18:51:28 10° NNW 18:56:33 72° W 19:02:56 10° S
BREEZE-M DEB (TANK) 3.6 18:55:25 10° W 18:57:55 27° NW 18:57:55 27° NW
ERS-2 4.1 18:57:13 10° SSW 19:00:29 30° W 19:03:47 10° NW
Nadezhda 3 Rocket 4.0 18:58:02 10° S 19:04:21 81° W 19:10:45 10° N
Cosmos 371 Rocket 3.8 18:59:35 10° S 19:03:06 48° S 19:03:06 48° S
Meteor 2-15 Rocket 4.3 19:00:57 10° S 19:07:02 68° E 19:07:29 66° ENE
Cosmos 44 4.2 19:08:05 10° WSW 19:12:07 37° NW 19:12:37 36° NNW
NOSS 3-4 (A) 4.4 19:17:25 10° NW 19:24:18 55° WSW 19:31:40 10° SSE
NOSS 3-4 (C) 4.4 19:17:30 10° NW 19:24:24 55° WSW 19:31:39 11° SSE
COSMOS 2406 3.7 19:27:40 10° SW 19:33:17 57° WNW 19:33:47 55° NW
Cosmos 1934 Rocket 4.3 19:29:12 10° N 19:34:05 56° NNW 19:34:05 56° NNW
Thor Agena Rocket 4.4 19:39:08 45° NW 19:39:39 47° WNW 19:44:38 10° SW
